Hourly Data Report for September 03, 2017

All times are specified in Local Standard Time (LST). Add 1 hour to adjust for Daylight Saving Time where and when it is observed.

ST. JOHN'S INTL A
NEWFOUNDLAND

47°37'07.000" N
52°45'09.000" W
140.50 m
8403505
71801
YYT

Download Data

Hourly Data (September 2017)
Hourly Data Report for September 3, 2017
Temp Definition
°C
Dew Point Temp Definition
°C
Rel Hum Definition
%
Wind Dir Definition
10's deg

Wind Spd Definition
km/h
Visibility Definition
km
Stn Press Definition
kPa
Hmdx Definition


Wind Chill Definition


Weather Definition


TIME
00:30 Legend Double Dagger 9.3 7.8 90 34 34 24.1 99.56     LegendNANA
01:30 Legend Double Dagger 9.7 7.8 88 33 34 24.1 99.64     LegendNANA
02:30 Legend Double Dagger 9.6 7.6 88 34 29 24.1 99.77     Cloudy
03:30 Legend Double Dagger 9.2 7.5 89 33 21 24.1 99.89     LegendNANA
04:30 Legend Double Dagger 9.0 7.4 89 33 19 24.1 99.97     Rain Showers
05:30 Legend Double Dagger 8.9 6.3 84 35 18 24.1 100.10     Mostly Cloudy
06:30 Legend Double Dagger 9.5 6.8 83 35 19 24.1 100.18     LegendNANA
07:30 Legend Double Dagger 10.2 6.9 80 32 32 24.1 100.29     LegendNANA
08:30 Legend Double Dagger 11.0 7.3 78 33 25 24.1 100.38     Mostly Cloudy
09:30 Legend Double Dagger 12.0 7.5 74 31 29 24.1 100.47     LegendNANA
10:30 Legend Double Dagger 13.0 7.1 67 30 24 24.1 100.50     LegendNANA
11:30 Legend Double Dagger 14.3 6.3 58 36 23 24.1 100.49     Mainly Clear
12:30 Legend Double Dagger 15.4 5.9 53 33 17 24.1 100.51     LegendNANA
13:30 Legend Double Dagger 16.5 4.8 46 33 13 24.1 100.54     LegendNANA
14:30 Legend Double Dagger 17.7 1.7 34 34 11 24.1 100.56     Clear
15:30 Legend Double Dagger 17.6 6.3 47 30 13 24.1 100.56     LegendNANA
16:30 Legend Double Dagger 17.3 6.4 48 28 8 24.1 100.60     LegendNANA
17:30 Legend Double Dagger 16.7 6.4 50 25 7 24.1 100.59     Mainly Clear
18:30 Legend Double Dagger 12.4 7.5 72 16 10 24.1 100.61     LegendNANA
19:30 Legend Double Dagger 11.7 8.2 79 22 10 24.1 100.66     LegendNANA
20:30 Legend Double Dagger 11.1 7.8 80 24 12 24.1 100.67     Mainly Clear
21:30 Legend Double Dagger 11.6 8.6 82 25 18 24.1 100.66     LegendNANA
22:30 Legend Double Dagger 11.5 8.3 80 24 18 24.1 100.63     LegendNANA
23:30 Legend Double Dagger 11.3 7.9 79 25 17 24.1 100.59     Mostly Cloudy

Notes on Data Quality.

Legend

  • E = Estimated
  • M = Missing
  • NA = Not Available
  • ‡ = Partner data that is not subject to review by the National Climate Archives
Date modified: